Time,TemperatureF,DewpointF,PressureIn,WindDirection,WindDirectionDegrees,WindSpeedMPH,WindSpeedGustMPH,Humidity,HourlyPrecipIn,Conditions,Clouds,dailyrainin,SolarRadiationWatts/m^2,SoftwareType,DateUTC
2013-08-16 00:02:00,62.0,58.0,-100.00,East,90,2.0,4.0,86,0.00,,,0.12,0.000000,,2013-08-16 05:02:00,
2013-08-16 00:43:00,60.0,56.0,-100.00,East,79,3.0,5.0,87,0.00,,,0.12,0.000000,,2013-08-16 05:43:00,
2013-08-16 02:00:00,58.0,55.0,-100.00,East,81,2.0,6.0,91,0.00,,,0.12,0.000000,,2013-08-16 07:00:00,
2013-08-16 02:42:00,56.0,54.0,-100.00,East,83,0.0,5.0,94,0.00,,,0.12,0.000000,,2013-08-16 07:42:00,
2013-08-16 02:52:00,56.0,54.0,-100.00,East,83,0.0,5.0,94,0.00,,,0.12,0.000000,,2013-08-16 07:52:00,
2013-08-16 03:01:00,56.0,54.0,-100.00,East,83,0.0,5.0,94,0.00,,,0.12,0.000000,,2013-08-16 08:01:00,
2013-08-16 03:42:00,55.0,53.0,-100.00,ENE,78,3.0,5.0,94,0.00,,,0.12,0.000000,,2013-08-16 08:42:00,
2013-08-16 03:52:00,55.0,53.0,-100.00,ENE,78,3.0,5.0,94,0.00,,,0.12,0.000000,,2013-08-16 08:52:00,
2013-08-16 04:01:00,55.0,53.0,-100.00,ENE,78,3.0,5.0,94,0.00,,,0.12,0.000000,,2013-08-16 09:01:00,
2013-08-16 04:42:00,54.0,53.0,-100.00,East,79,1.0,5.0,95,0.00,,,0.12,0.000000,,2013-08-16 09:42:00,
2013-08-16 04:53:00,54.0,53.0,-100.00,East,79,1.0,5.0,95,0.00,,,0.12,0.000000,,2013-08-16 09:53:00,
2013-08-16 05:03:00,54.0,53.0,-100.00,East,79,1.0,5.0,95,0.00,,,0.12,0.000000,,2013-08-16 10:03:00,
2013-08-16 05:42:00,53.0,52.0,-100.00,East,80,2.0,4.0,95,0.00,,,0.12,0.000000,,2013-08-16 10:42:00,
2013-08-16 05:53:00,53.0,52.0,-100.00,East,80,2.0,4.0,95,0.00,,,0.12,0.000000,,2013-08-16 10:53:00,
2013-08-16 06:02:00,53.0,52.0,-100.00,East,80,2.0,4.0,95,0.00,,,0.12,0.000000,,2013-08-16 11:02:00,
2013-08-16 06:42:00,51.0,50.0,-100.00,WSW,253,0.0,4.0,96,0.00,,,0.12,0.000000,,2013-08-16 11:42:00,
2013-08-16 06:52:00,51.0,50.0,-100.00,WSW,253,0.0,4.0,96,0.00,,,0.12,0.000000,,2013-08-16 11:52:00,
2013-08-16 07:02:00,51.0,50.0,-100.00,WSW,253,0.0,4.0,96,0.00,,,0.12,0.000000,,2013-08-16 12:02:00,
2013-08-16 07:42:00,52.0,52.0,-100.00,NE,54,0.0,0.0,99,0.00,,,0.12,15.000000,,2013-08-16 12:42:00,
2013-08-16 07:52:00,52.0,52.0,-100.00,NE,54,0.0,0.0,99,0.00,,,0.12,15.000000,,2013-08-16 12:52:00,
2013-08-16 08:02:00,52.0,52.0,-100.00,NE,54,0.0,0.0,99,0.00,,,0.12,15.000000,,2013-08-16 13:02:00,
2013-08-16 08:42:00,59.0,54.0,-100.00,ENE,77,3.0,5.0,84,0.00,,,0.11,122.000000,,2013-08-16 13:42:00,
2013-08-16 08:53:00,59.0,54.0,-100.00,ENE,77,3.0,5.0,84,0.00,,,0.11,122.000000,,2013-08-16 13:53:00,
2013-08-16 09:02:00,59.0,54.0,-100.00,ENE,77,3.0,5.0,84,0.00,,,0.11,122.000000,,2013-08-16 14:02:00,
2013-08-16 09:42:00,66.0,56.0,-100.00,East,96,4.0,7.0,70,0.00,,,0.11,291.000000,,2013-08-16 14:42:00,
2013-08-16 09:52:00,66.0,56.0,-100.00,East,96,4.0,7.0,70,0.00,,,0.11,291.000000,,2013-08-16 14:52:00,
2013-08-16 10:01:00,66.0,56.0,-100.00,East,96,4.0,7.0,70,0.00,,,0.11,291.000000,,2013-08-16 15:01:00,
2013-08-16 10:43:00,70.0,55.0,-100.00,East,92,5.0,9.0,60,0.00,,,0.11,453.000000,,2013-08-16 15:43:00,
2013-08-16 10:56:00,70.0,55.0,-100.00,East,92,5.0,9.0,60,0.00,,,0.11,453.000000,,2013-08-16 15:56:00,
2013-08-16 11:04:00,70.0,55.0,-100.00,East,92,5.0,9.0,60,0.00,,,0.11,453.000000,,2013-08-16 16:04:00,
2013-08-16 11:44:00,73.0,55.0,-100.00,ESE,110,5.0,10.0,54,0.00,,,0.03,604.000000,,2013-08-16 16:44:00,
2013-08-16 11:57:00,73.0,55.0,-100.00,ESE,110,5.0,10.0,54,0.00,,,0.03,604.000000,,2013-08-16 16:57:00,
2013-08-16 12:03:00,73.0,55.0,-100.00,ESE,110,5.0,10.0,54,0.00,,,0.03,604.000000,,2013-08-16 17:03:00,
2013-08-16 12:47:00,75.0,53.0,-100.00,SE,125,5.0,12.0,47,0.00,,,0.01,722.000000,,2013-08-16 17:47:00,
2013-08-16 13:00:00,75.0,53.0,-100.00,SE,125,5.0,12.0,47,0.00,,,0.01,722.000000,,2013-08-16 18:00:00,
2013-08-16 13:06:00,75.0,53.0,-100.00,SE,125,5.0,12.0,47,0.00,,,0.01,722.000000,,2013-08-16 18:06:00,
2013-08-16 13:50:00,-999.0,-99.9,-100.00,East,92,6.0,11.0,48,0.00,,,0.01,500.000000,,2013-08-16 18:50:00,
2013-08-16 14:03:00,73.0,52.0,-100.00,East,92,6.0,11.0,48,0.00,,,0.01,500.000000,,2013-08-16 19:03:00,
2013-08-16 14:46:00,76.0,54.0,-100.00,ESE,123,5.0,10.0,47,0.00,,,-99.99,627.000000,,2013-08-16 19:46:00,
2013-08-16 14:55:00,76.0,54.0,-100.00,ESE,123,5.0,10.0,47,0.00,,,-99.99,627.000000,,2013-08-16 19:55:00,
2013-08-16 15:02:00,76.0,54.0,-100.00,ESE,123,5.0,10.0,47,0.00,,,-99.99,627.000000,,2013-08-16 20:02:00,
2013-08-16 15:44:00,77.0,51.0,-100.00,SE,146,6.0,11.0,40,0.00,,,0.00,649.000000,,2013-08-16 20:44:00,
2013-08-16 15:52:00,77.0,51.0,-100.00,SE,146,6.0,11.0,40,0.00,,,0.00,649.000000,,2013-08-16 20:52:00,
2013-08-16 16:01:00,77.0,51.0,-100.00,SE,146,6.0,11.0,40,0.00,,,0.00,649.000000,,2013-08-16 21:01:00,
2013-08-16 16:07:00,79.0,53.0,-100.00,East,99,4.0,11.0,40,0.00,,,0.00,523.000000,,2013-08-16 21:07:00,
2013-08-16 16:40:00,-999.0,-99.9,-100.00,East,99,4.0,11.0,-999,0.00,,,0.00,523.000000,,2013-08-16 21:40:00,
2013-08-16 16:54:00,79.0,53.0,-100.00,East,99,4.0,11.0,40,0.00,,,0.00,523.000000,,2013-08-16 21:54:00,
2013-08-16 17:07:00,77.0,51.0,-100.00,ESE,120,5.0,10.0,41,0.00,,,0.00,432.000000,,2013-08-16 22:07:00,
2013-08-16 17:43:00,77.0,51.0,-100.00,ESE,120,5.0,10.0,41,0.00,,,0.00,432.000000,,2013-08-16 22:43:00,
2013-08-16 17:52:00,77.0,51.0,-100.00,ESE,120,5.0,10.0,41,0.00,,,0.00,432.000000,,2013-08-16 22:52:00,
2013-08-16 18:42:00,79.0,52.0,-100.00,SE,127,3.0,9.0,39,0.00,,,0.00,413.000000,,2013-08-16 23:42:00,
2013-08-16 18:52:00,79.0,52.0,-100.00,SE,127,3.0,9.0,39,0.00,,,0.00,413.000000,,2013-08-16 23:52:00,
2013-08-16 19:01:00,79.0,52.0,-100.00,SE,127,3.0,9.0,39,0.00,,,0.00,413.000000,,2013-08-17 00:01:00,
2013-08-16 19:42:00,72.0,55.0,-100.00,ENE,76,2.0,10.0,55,0.00,,,0.00,171.000000,,2013-08-17 00:42:00,
2013-08-16 19:52:00,72.0,55.0,-100.00,ENE,76,2.0,10.0,55,0.00,,,0.00,171.000000,,2013-08-17 00:52:00,
2013-08-16 20:01:00,72.0,55.0,-100.00,ENE,76,2.0,10.0,55,0.00,,,0.00,171.000000,,2013-08-17 01:01:00,
2013-08-16 20:42:00,68.0,56.0,-100.00,NE,47,0.0,4.0,65,0.00,,,0.00,46.000000,,2013-08-17 01:42:00,
2013-08-16 20:52:00,68.0,56.0,-100.00,NE,47,0.0,4.0,65,0.00,,,0.00,46.000000,,2013-08-17 01:52:00,
2013-08-16 21:01:00,68.0,56.0,-100.00,NE,47,0.0,4.0,65,0.00,,,0.00,46.000000,,2013-08-17 02:01:00,
2013-08-16 21:42:00,64.0,55.0,-100.00,ENE,71,0.0,3.0,72,0.00,,,0.00,1.000000,,2013-08-17 02:42:00,
2013-08-16 21:52:00,64.0,55.0,-100.00,ENE,71,0.0,3.0,72,0.00,,,0.00,1.000000,,2013-08-17 02:52:00,
2013-08-16 22:02:00,64.0,55.0,-100.00,ENE,71,0.0,3.0,72,0.00,,,0.00,1.000000,,2013-08-17 03:02:00,
2013-08-16 22:43:00,62.0,54.0,-100.00,ENE,69,0.0,0.0,75,0.00,,,0.00,0.000000,,2013-08-17 03:43:00,
2013-08-16 22:53:00,62.0,54.0,-100.00,ENE,69,0.0,0.0,75,0.00,,,0.00,0.000000,,2013-08-17 03:53:00,
2013-08-16 23:03:00,62.0,54.0,-100.00,ENE,69,0.0,0.0,75,0.00,,,0.00,0.000000,,2013-08-17 04:03:00,
2013-08-16 23:44:00,60.0,53.0,-100.00,ENE,70,0.0,0.0,77,0.00,,,0.00,0.000000,,2013-08-17 04:44:00,
2013-08-16 23:53:00,60.0,53.0,-100.00,ENE,70,0.0,0.0,77,0.00,,,0.00,0.000000,,2013-08-17 04:53:00,